Location: ?ejeti?ky
(50.4060°N, 14.9016°E)
Time: 18:08:37
(UTC+00:00)

ISS - Visible Passes

Search period start: 07 March 2021 00:00
Search period end: 17 March 2021 00:00
Orbit: 417 x 422 km, 51.6° (Epoch: 07 March)

Date Brightness Start Highest point End Pass type
(mag) Time Alt. Az. Time Alt. Az. Time Alt. Az.
07 Mar -0.7 02:25:47 15° E 02:25:47 15° E 02:26:28 10° E visible
07 Mar -3.8 03:58:45 36° W 04:00:00 77° SSW 04:03:22 10° ESE visible
08 Mar -3.1 03:13:12 54° E 03:13:12 54° E 03:15:53 10° ESE visible
08 Mar -2.7 04:46:09 10° W 04:49:07 30° SSW 04:52:06 10° SSE visible
09 Mar -0.8 02:27:42 15° E 02:27:42 15° E 02:28:22 10° E visible
09 Mar -3.3 04:00:40 31° WSW 04:01:44 42° SSW 04:04:55 10° SE visible
10 Mar -2.8 03:15:16 39° SE 03:15:16 39° SE 03:17:36 10° ESE visible
10 Mar -1.7 04:48:38 10° WSW 04:50:34 15° SW 04:52:31 10° S visible
11 Mar -0.7 02:30:00 11° ESE 02:30:00 11° ESE 02:30:11 10° ESE visible
11 Mar -2.3 04:02:59 21° SW 04:03:17 21° SW 04:05:53 10° SSE visible
12 Mar -1.6 03:17:52 17° SSE 03:17:52 17° SSE 03:18:54 10° SSE visible
